Year,Month,Day,Hour,Minute,Value (Times are PST for temperature in C)
2017,09,06,00,00,19.40
2017,09,06,00,01,19.40
2017,09,06,00,02,19.40
2017,09,06,00,03,19.30
2017,09,06,00,04,19.30
2017,09,06,00,05,19.30
2017,09,06,00,06,19.30
2017,09,06,00,07,19.30
2017,09,06,00,08,19.30
2017,09,06,00,09,19.20
2017,09,06,00,10,19.20
2017,09,06,00,11,19.20
2017,09,06,00,12,19.20
2017,09,06,00,13,19.20
2017,09,06,00,14,19.20
2017,09,06,00,15,19.10
2017,09,06,00,16,19.10
2017,09,06,00,17,19.10
2017,09,06,00,18,19.10
2017,09,06,00,19,19.10
2017,09,06,00,20,19.10
2017,09,06,00,21,19.10
2017,09,06,00,22,19.10
2017,09,06,00,23,19.10
2017,09,06,00,24,19.10
2017,09,06,00,25,19.10
2017,09,06,00,26,19.10
2017,09,06,00,27,19.10
2017,09,06,00,28,19.10
2017,09,06,00,29,19.10
2017,09,06,00,30,19.10
2017,09,06,00,31,19.10
2017,09,06,00,32,19.10
2017,09,06,00,33,19.20
2017,09,06,00,34,19.20
2017,09,06,00,35,19.20
2017,09,06,00,36,19.20
2017,09,06,00,37,19.20
2017,09,06,00,38,19.30
2017,09,06,00,39,19.30
2017,09,06,00,40,19.30
2017,09,06,00,41,19.30
2017,09,06,00,42,19.40
2017,09,06,00,43,19.40
2017,09,06,00,44,19.50
2017,09,06,00,45,19.50
2017,09,06,00,46,19.50
2017,09,06,00,47,19.40
2017,09,06,00,48,19.40
2017,09,06,00,49,19.40
2017,09,06,00,50,19.40
2017,09,06,00,51,19.30
2017,09,06,00,52,19.30
2017,09,06,00,53,19.30
2017,09,06,00,54,19.20
2017,09,06,00,55,19.20
2017,09,06,00,56,19.10
2017,09,06,00,57,19.10
2017,09,06,00,58,19.00
2017,09,06,00,59,19.00
2017,09,06,01,00,18.90
2017,09,06,01,01,18.90
2017,09,06,01,02,18.90
2017,09,06,01,03,18.80
2017,09,06,01,04,18.80
2017,09,06,01,05,18.70
2017,09,06,01,06,18.70
2017,09,06,01,07,18.60
2017,09,06,01,08,18.60
2017,09,06,01,09,18.60
2017,09,06,01,10,18.60
2017,09,06,01,11,18.50
2017,09,06,01,12,18.50
2017,09,06,01,13,18.50
2017,09,06,01,14,18.50
2017,09,06,01,15,18.40
2017,09,06,01,16,18.40
2017,09,06,01,17,18.40
2017,09,06,01,18,18.40
2017,09,06,01,19,18.30
2017,09,06,01,20,18.40
2017,09,06,01,21,18.40
2017,09,06,01,22,18.40
2017,09,06,01,23,18.40
2017,09,06,01,24,18.30
2017,09,06,01,25,18.30
2017,09,06,01,26,18.30
2017,09,06,01,27,18.30
2017,09,06,01,28,18.30
2017,09,06,01,29,18.30
2017,09,06,01,30,18.30
2017,09,06,01,31,18.30
2017,09,06,01,32,18.30
2017,09,06,01,33,18.30
2017,09,06,01,34,18.30
2017,09,06,01,35,18.30
2017,09,06,01,36,18.40
2017,09,06,01,37,18.40
2017,09,06,01,38,18.40
2017,09,06,01,39,18.40
2017,09,06,01,40,18.40
2017,09,06,01,41,18.40
2017,09,06,01,42,18.40
2017,09,06,01,43,18.40
2017,09,06,01,44,18.40
2017,09,06,01,45,18.40
2017,09,06,01,46,18.40
2017,09,06,01,47,18.40
2017,09,06,01,48,18.40
2017,09,06,01,49,18.40
2017,09,06,01,50,18.40
2017,09,06,01,51,18.40
2017,09,06,01,52,18.40
2017,09,06,01,53,18.50
2017,09,06,01,54,18.40
2017,09,06,01,55,18.40
2017,09,06,01,56,18.50
2017,09,06,01,57,18.50
2017,09,06,01,58,18.50
2017,09,06,01,59,18.50
2017,09,06,02,00,18.50
2017,09,06,02,01,18.60
2017,09,06,02,02,18.60
2017,09,06,02,03,18.60
2017,09,06,02,04,18.60
2017,09,06,02,05,18.60
2017,09,06,02,06,18.60
2017,09,06,02,07,18.60
2017,09,06,02,08,18.60
2017,09,06,02,09,18.60
2017,09,06,02,10,18.60
2017,09,06,02,11,18.60
2017,09,06,02,12,18.60
2017,09,06,02,13,18.60
2017,09,06,02,14,18.60
2017,09,06,02,15,18.60
2017,09,06,02,16,18.60
2017,09,06,02,17,18.60
2017,09,06,02,18,18.60
2017,09,06,02,19,18.60
2017,09,06,02,20,18.60
2017,09,06,02,21,18.60
2017,09,06,02,22,18.70
2017,09,06,02,23,18.70
2017,09,06,02,24,18.70
2017,09,06,02,25,18.80
2017,09,06,02,26,18.80
2017,09,06,02,27,18.80
2017,09,06,02,28,18.80
2017,09,06,02,29,18.80
2017,09,06,02,30,18.90
2017,09,06,02,31,18.90
2017,09,06,02,32,18.90
2017,09,06,02,33,18.90
2017,09,06,02,34,18.90
2017,09,06,02,35,18.90
2017,09,06,02,36,18.90
2017,09,06,02,37,18.90
2017,09,06,02,38,18.90
2017,09,06,02,39,19.00
2017,09,06,02,40,19.00
2017,09,06,02,41,19.00
2017,09,06,02,42,19.00
2017,09,06,02,43,19.00
2017,09,06,02,44,19.00
2017,09,06,02,45,19.00
2017,09,06,02,46,19.00
2017,09,06,02,47,19.00
2017,09,06,02,48,19.00
2017,09,06,02,49,19.00
2017,09,06,02,50,19.00
2017,09,06,02,51,18.90
2017,09,06,02,52,18.90
2017,09,06,02,53,18.90
2017,09,06,02,54,18.90
2017,09,06,02,55,18.90
2017,09,06,02,56,18.90
2017,09,06,02,57,18.90
2017,09,06,02,58,18.90
2017,09,06,02,59,18.90
2017,09,06,03,00,18.90
2017,09,06,03,01,18.90
2017,09,06,03,02,19.00
2017,09,06,03,03,19.00
2017,09,06,03,04,19.00
2017,09,06,03,05,19.10
2017,09,06,03,06,19.10
2017,09,06,03,07,19.10
2017,09,06,03,08,19.20
2017,09,06,03,09,19.20
2017,09,06,03,10,19.20
2017,09,06,03,11,19.10
2017,09,06,03,12,19.10
2017,09,06,03,13,19.10
2017,09,06,03,14,19.10
2017,09,06,03,15,19.00
2017,09,06,03,16,19.00
2017,09,06,03,17,19.00
2017,09,06,03,18,19.00
2017,09,06,03,19,19.00
2017,09,06,03,20,18.90
2017,09,06,03,21,18.90
2017,09,06,03,22,18.90
2017,09,06,03,23,18.90
2017,09,06,03,24,18.90
2017,09,06,03,25,18.90
2017,09,06,03,26,18.90
2017,09,06,03,27,18.80
2017,09,06,03,28,18.80
2017,09,06,03,29,18.80
2017,09,06,03,30,18.80
2017,09,06,03,31,18.80
2017,09,06,03,32,18.80
2017,09,06,03,33,18.80
2017,09,06,03,34,18.80
2017,09,06,03,35,18.80
2017,09,06,03,36,18.90
2017,09,06,03,37,18.90
2017,09,06,03,38,18.80
2017,09,06,03,39,18.80
2017,09,06,03,40,18.80
2017,09,06,03,41,18.80
2017,09,06,03,42,18.80
2017,09,06,03,43,18.90
2017,09,06,03,44,18.90
2017,09,06,03,45,18.90
2017,09,06,03,46,18.90
2017,09,06,03,47,18.90
2017,09,06,03,48,18.90
2017,09,06,03,49,18.90
2017,09,06,03,50,18.90
2017,09,06,03,51,18.90
2017,09,06,03,52,18.90
2017,09,06,03,53,18.90
2017,09,06,03,54,18.90
2017,09,06,03,55,18.90
2017,09,06,03,56,18.90
2017,09,06,03,57,18.90
2017,09,06,03,58,19.00
2017,09,06,03,59,19.00
2017,09,06,04,00,19.00
2017,09,06,04,01,19.00
2017,09,06,04,02,19.00
2017,09,06,04,03,19.00
2017,09,06,04,04,19.00
2017,09,06,04,05,19.00
2017,09,06,04,06,19.00
2017,09,06,04,07,18.90
2017,09,06,04,08,18.90
2017,09,06,04,09,18.90
2017,09,06,04,10,18.90
2017,09,06,04,11,18.90
2017,09,06,04,12,18.90
2017,09,06,04,13,18.90
2017,09,06,04,14,18.80
2017,09,06,04,15,18.80
2017,09,06,04,16,18.80
2017,09,06,04,17,18.80
2017,09,06,04,18,18.80
2017,09,06,04,19,18.80
2017,09,06,04,20,18.80
2017,09,06,04,21,18.70
2017,09,06,04,22,18.70
2017,09,06,04,23,18.70
2017,09,06,04,24,18.70
2017,09,06,04,25,18.70
2017,09,06,04,26,18.70
2017,09,06,04,27,18.70
2017,09,06,04,28,18.70
2017,09,06,04,29,18.60
2017,09,06,04,30,18.60
2017,09,06,04,31,18.60
2017,09,06,04,32,18.60
2017,09,06,04,33,18.60
2017,09,06,04,34,18.60
2017,09,06,04,35,18.60
2017,09,06,04,36,18.60
2017,09,06,04,37,18.50
2017,09,06,04,38,18.50
2017,09,06,04,39,18.50
2017,09,06,04,40,18.40
2017,09,06,04,41,18.40
2017,09,06,04,42,18.40
2017,09,06,04,43,18.40
2017,09,06,04,44,18.40
2017,09,06,04,45,18.30
2017,09,06,04,46,18.30
2017,09,06,04,47,18.30
2017,09,06,04,48,18.30
2017,09,06,04,49,18.30
2017,09,06,04,50,18.30
2017,09,06,04,51,18.30
2017,09,06,04,52,18.30
2017,09,06,04,53,18.30
2017,09,06,04,54,18.30
2017,09,06,04,55,18.30
2017,09,06,04,56,18.30
2017,09,06,04,57,18.30
2017,09,06,04,58,18.30
2017,09,06,04,59,18.30
2017,09,06,05,00,18.30
2017,09,06,05,01,18.30
2017,09,06,05,02,18.20
2017,09,06,05,03,18.20
2017,09,06,05,04,18.20
2017,09,06,05,05,18.20
2017,09,06,05,06,18.20
2017,09,06,05,07,18.10
2017,09,06,05,08,18.10
2017,09,06,05,09,18.10
2017,09,06,05,10,18.10
2017,09,06,05,11,18.10
2017,09,06,05,12,18.10
2017,09,06,05,13,18.10
2017,09,06,05,14,18.10
2017,09,06,05,15,18.10
2017,09,06,05,16,18.10
2017,09,06,05,17,18.00
2017,09,06,05,18,18.00
2017,09,06,05,19,18.00
2017,09,06,05,20,18.00
2017,09,06,05,21,18.00
2017,09,06,05,22,17.90
2017,09,06,05,23,17.90
2017,09,06,05,24,17.90
2017,09,06,05,25,17.90
2017,09,06,05,26,17.90
2017,09,06,05,27,17.80
2017,09,06,05,28,17.80
2017,09,06,05,29,17.80
2017,09,06,05,30,17.80
2017,09,06,05,31,17.80
2017,09,06,05,32,17.80
2017,09,06,05,33,17.80
2017,09,06,05,34,17.90
2017,09,06,05,35,17.90
2017,09,06,05,36,18.00
2017,09,06,05,37,18.00
2017,09,06,05,38,18.10
2017,09,06,05,39,18.10
2017,09,06,05,40,18.20
2017,09,06,05,41,18.20
2017,09,06,05,42,18.20
2017,09,06,05,43,18.20
2017,09,06,05,44,18.30
2017,09,06,05,45,18.20
2017,09,06,05,46,18.20
2017,09,06,05,47,18.20
2017,09,06,05,48,18.10
2017,09,06,05,49,18.10
2017,09,06,05,50,18.10
2017,09,06,05,51,18.00
2017,09,06,05,52,18.00
2017,09,06,05,53,17.90
2017,09,06,05,54,17.90
2017,09,06,05,55,17.90
2017,09,06,05,56,17.90
2017,09,06,05,57,17.90
2017,09,06,05,58,17.80
2017,09,06,05,59,17.80
2017,09,06,06,00,17.80
2017,09,06,06,01,17.80
2017,09,06,06,02,17.80
2017,09,06,06,03,17.80
2017,09,06,06,04,17.80
2017,09,06,06,05,17.70
2017,09,06,06,06,17.70
2017,09,06,06,07,17.80
2017,09,06,06,08,17.80
2017,09,06,06,09,17.90
2017,09,06,06,10,17.90
2017,09,06,06,11,17.90
2017,09,06,06,12,17.90
2017,09,06,06,13,17.90
2017,09,06,06,14,17.90
2017,09,06,06,15,18.00
2017,09,06,06,16,18.00
2017,09,06,06,17,18.00
2017,09,06,06,18,18.10
2017,09,06,06,19,18.10
2017,09,06,06,20,18.20
2017,09,06,06,21,18.20
2017,09,06,06,22,18.20
2017,09,06,06,23,18.20
2017,09,06,06,24,18.20
2017,09,06,06,25,18.20
2017,09,06,06,26,18.30
2017,09,06,06,27,18.30
2017,09,06,06,28,18.30
2017,09,06,06,29,18.30
2017,09,06,06,30,18.30
2017,09,06,06,31,18.30
2017,09,06,06,32,18.30
2017,09,06,06,33,18.30
2017,09,06,06,34,18.30
2017,09,06,06,35,18.40
2017,09,06,06,36,18.40
2017,09,06,06,37,18.40
2017,09,06,06,38,18.40
2017,09,06,06,39,18.30
2017,09,06,06,40,18.30
2017,09,06,06,41,18.20
2017,09,06,06,42,18.20
2017,09,06,06,43,18.10
2017,09,06,06,44,18.20
2017,09,06,06,45,18.20
2017,09,06,06,46,18.30
2017,09,06,06,47,18.30
2017,09,06,06,48,18.30
2017,09,06,06,49,18.30
2017,09,06,06,50,18.40
2017,09,06,06,51,18.40
2017,09,06,06,52,18.50
2017,09,06,06,53,18.50
2017,09,06,06,54,18.60
2017,09,06,06,55,18.60
2017,09,06,06,56,18.60
2017,09,06,06,57,18.70
2017,09,06,06,58,18.60
2017,09,06,06,59,18.60
2017,09,06,07,00,18.50
2017,09,06,07,01,18.50
2017,09,06,07,02,18.40
2017,09,06,07,03,18.40
2017,09,06,07,04,18.40
2017,09,06,07,05,18.50
2017,09,06,07,06,18.50
2017,09,06,07,07,18.50
2017,09,06,07,08,18.40
2017,09,06,07,09,18.40
2017,09,06,07,10,18.40
2017,09,06,07,11,18.40
2017,09,06,07,12,18.40
2017,09,06,07,13,18.30
2017,09,06,07,14,18.20
2017,09,06,07,15,18.20
2017,09,06,07,16,18.10
2017,09,06,07,17,18.00
2017,09,06,07,18,18.00
2017,09,06,07,19,17.90
2017,09,06,07,20,17.90
2017,09,06,07,21,17.80
2017,09,06,07,22,17.80
2017,09,06,07,23,17.80
2017,09,06,07,24,17.80
2017,09,06,07,25,17.80
2017,09,06,07,26,17.80
2017,09,06,07,27,17.80
2017,09,06,07,28,17.80
2017,09,06,07,29,17.80
2017,09,06,07,30,17.80
2017,09,06,07,31,17.80
2017,09,06,07,32,17.80
2017,09,06,07,33,17.80
2017,09,06,07,34,17.80
2017,09,06,07,35,17.80
2017,09,06,07,36,17.80
2017,09,06,07,37,17.80
2017,09,06,07,38,17.80
2017,09,06,07,39,17.80
2017,09,06,07,40,17.80
2017,09,06,07,41,17.90
2017,09,06,07,42,17.90
2017,09,06,07,43,17.90
2017,09,06,07,44,17.90
2017,09,06,07,45,17.90
2017,09,06,07,46,17.90
2017,09,06,07,47,17.90
2017,09,06,07,48,17.90
2017,09,06,07,49,17.90
2017,09,06,07,50,17.90
2017,09,06,07,51,17.90
2017,09,06,07,52,17.90
2017,09,06,07,53,17.90
2017,09,06,07,54,17.90
2017,09,06,07,55,17.90
2017,09,06,07,56,17.90
2017,09,06,07,57,17.90
2017,09,06,07,58,17.90
2017,09,06,07,59,18.00
2017,09,06,08,00,18.00
2017,09,06,08,01,18.00
2017,09,06,08,02,18.00
2017,09,06,08,03,18.00
2017,09,06,08,04,18.00
2017,09,06,08,05,18.00
2017,09,06,08,06,18.00
2017,09,06,08,07,18.00
2017,09,06,08,08,18.10
2017,09,06,08,09,18.10
2017,09,06,08,10,18.10
2017,09,06,08,11,18.10
2017,09,06,08,12,18.10
2017,09,06,08,13,18.20
2017,09,06,08,14,18.20
2017,09,06,08,15,18.20
2017,09,06,08,16,18.30
2017,09,06,08,17,18.30
2017,09,06,08,18,18.30
2017,09,06,08,19,18.40
2017,09,06,08,20,18.40
2017,09,06,08,21,18.50
2017,09,06,08,22,18.50
2017,09,06,08,23,18.60
2017,09,06,08,24,18.60
2017,09,06,08,25,18.60
2017,09,06,08,26,18.70
2017,09,06,08,27,18.70
2017,09,06,08,28,18.80
2017,09,06,08,29,18.80
2017,09,06,08,30,18.80
2017,09,06,08,31,18.90
2017,09,06,08,32,18.90
2017,09,06,08,33,19.00
2017,09,06,08,34,19.00
2017,09,06,08,35,19.10
2017,09,06,08,36,19.10
2017,09,06,08,37,19.10
2017,09,06,08,38,19.10
2017,09,06,08,39,19.10
2017,09,06,08,40,19.10
2017,09,06,08,41,19.20
2017,09,06,08,42,19.20
2017,09,06,08,43,19.20
2017,09,06,08,44,19.20
2017,09,06,08,45,19.20
2017,09,06,08,46,19.20
2017,09,06,08,47,19.30
2017,09,06,08,48,19.30
2017,09,06,08,49,19.40
2017,09,06,08,50,19.40
2017,09,06,08,51,19.50
2017,09,06,08,52,19.50
2017,09,06,08,53,19.60
2017,09,06,08,54,19.60
2017,09,06,08,55,19.70
2017,09,06,08,56,19.70
2017,09,06,08,57,19.70
2017,09,06,08,58,19.80
2017,09,06,08,59,19.80
2017,09,06,09,00,19.80
2017,09,06,09,01,19.90
2017,09,06,09,02,19.90
2017,09,06,09,03,20.00
2017,09,06,09,04,20.00
2017,09,06,09,05,20.00
2017,09,06,09,06,20.10
2017,09,06,09,07,20.10
2017,09,06,09,08,20.10
2017,09,06,09,09,20.10
2017,09,06,09,10,20.10
2017,09,06,09,11,20.20
2017,09,06,09,12,20.20
2017,09,06,09,13,20.20
2017,09,06,09,14,20.30
2017,09,06,09,15,20.30
2017,09,06,09,16,20.30
2017,09,06,09,17,20.40
2017,09,06,09,18,20.40
2017,09,06,09,19,20.40
2017,09,06,09,20,20.50
2017,09,06,09,21,20.50
2017,09,06,09,22,20.60
2017,09,06,09,23,20.60
2017,09,06,09,24,20.70
2017,09,06,09,25,20.80
2017,09,06,09,26,20.80
2017,09,06,09,27,20.90
2017,09,06,09,28,20.90
2017,09,06,09,29,21.00
2017,09,06,09,30,21.10
2017,09,06,09,31,21.20
2017,09,06,09,32,21.30
2017,09,06,09,33,21.40
2017,09,06,09,34,21.50
2017,09,06,09,35,21.60
2017,09,06,09,36,21.70
2017,09,06,09,37,21.80
2017,09,06,09,38,21.80
2017,09,06,09,39,21.90
2017,09,06,09,40,22.00
2017,09,06,09,41,22.10
2017,09,06,09,42,22.20
2017,09,06,09,43,22.20
2017,09,06,09,44,22.20
2017,09,06,09,45,22.20
2017,09,06,09,46,22.30
2017,09,06,09,47,22.30
2017,09,06,09,48,22.30
2017,09,06,09,49,22.30
2017,09,06,09,50,22.30
2017,09,06,09,51,22.40
2017,09,06,09,52,22.40
2017,09,06,09,53,22.40
2017,09,06,09,54,22.50
2017,09,06,09,55,22.50
2017,09,06,09,56,22.50
2017,09,06,09,57,22.60
2017,09,06,09,58,22.60
2017,09,06,09,59,22.70
2017,09,06,10,00,22.70
2017,09,06,10,01,22.80
2017,09,06,10,02,22.80
2017,09,06,10,03,22.80
2017,09,06,10,04,22.80
2017,09,06,10,05,22.90
2017,09,06,10,06,22.90
2017,09,06,10,07,22.90
2017,09,06,10,08,23.00
2017,09,06,10,09,23.00
2017,09,06,10,10,23.10
2017,09,06,10,11,23.10
2017,09,06,10,12,23.10
2017,09,06,10,13,23.10
2017,09,06,10,14,23.10
2017,09,06,10,15,23.10
2017,09,06,10,16,23.10
2017,09,06,10,17,23.20
2017,09,06,10,18,23.20
2017,09,06,10,19,23.20
2017,09,06,10,20,23.20
2017,09,06,10,21,23.20
2017,09,06,10,22,23.20
2017,09,06,10,23,23.20
2017,09,06,10,24,23.20
2017,09,06,10,25,23.20
2017,09,06,10,26,23.30
2017,09,06,10,27,23.30
2017,09,06,10,28,23.30
2017,09,06,10,29,23.30
2017,09,06,10,30,23.30
2017,09,06,10,31,23.30
2017,09,06,10,32,23.40
2017,09,06,10,33,23.40
2017,09,06,10,34,23.50
2017,09,06,10,35,23.60
2017,09,06,10,36,23.60
2017,09,06,10,37,23.70
2017,09,06,10,38,23.80
2017,09,06,10,39,23.80
2017,09,06,10,40,23.90
2017,09,06,10,41,23.90
2017,09,06,10,42,23.90
2017,09,06,10,43,24.00
2017,09,06,10,44,24.10
2017,09,06,10,45,24.10
2017,09,06,10,46,24.10
2017,09,06,10,47,24.10
2017,09,06,10,48,24.20
2017,09,06,10,49,24.20
2017,09,06,10,50,24.20
2017,09,06,10,51,24.30
2017,09,06,10,52,24.30
2017,09,06,10,53,24.30
2017,09,06,10,54,24.30
2017,09,06,10,55,24.30
2017,09,06,10,56,24.30
2017,09,06,10,57,24.30
2017,09,06,10,58,24.10
2017,09,06,10,59,24.10
2017,09,06,11,00,24.00
2017,09,06,11,01,23.90
2017,09,06,11,02,23.80
2017,09,06,11,03,23.70
2017,09,06,11,04,23.60
2017,09,06,11,05,23.60
2017,09,06,11,06,23.50
2017,09,06,11,07,23.50
2017,09,06,11,08,23.50
2017,09,06,11,09,23.50
2017,09,06,11,10,23.50
2017,09,06,11,11,23.50
2017,09,06,11,12,23.50
2017,09,06,11,13,23.50
2017,09,06,11,14,23.50
2017,09,06,11,15,23.50
2017,09,06,11,16,23.40
2017,09,06,11,17,23.30
2017,09,06,11,18,23.20
2017,09,06,11,19,23.20
2017,09,06,11,20,23.10
2017,09,06,11,21,23.00
2017,09,06,11,22,22.90
2017,09,06,11,23,22.90
2017,09,06,11,24,22.90
2017,09,06,11,25,22.80
2017,09,06,11,26,22.80
2017,09,06,11,27,22.80
2017,09,06,11,28,22.80
2017,09,06,11,29,22.80
2017,09,06,11,30,22.80
2017,09,06,11,31,22.80
2017,09,06,11,32,22.80
2017,09,06,11,33,22.80
2017,09,06,11,34,22.90
2017,09,06,11,35,22.90
2017,09,06,11,36,22.90
2017,09,06,11,37,23.00
2017,09,06,11,38,23.10
2017,09,06,11,39,23.10
2017,09,06,11,40,23.10
2017,09,06,11,41,23.20
2017,09,06,11,42,23.20
2017,09,06,11,43,23.20
2017,09,06,11,44,23.20
2017,09,06,11,45,23.30
2017,09,06,11,46,23.30
2017,09,06,11,47,23.30
2017,09,06,11,48,23.30
2017,09,06,11,49,23.30
2017,09,06,11,50,23.20
2017,09,06,11,51,23.20
2017,09,06,11,52,23.20
2017,09,06,11,53,23.20
2017,09,06,11,54,23.20
2017,09,06,11,55,23.20
2017,09,06,11,56,23.10
2017,09,06,11,57,23.10
2017,09,06,11,58,23.10
2017,09,06,11,59,23.00
2017,09,06,12,00,22.90
2017,09,06,12,01,22.90
2017,09,06,12,02,22.90
2017,09,06,12,03,22.90
2017,09,06,12,04,22.90
2017,09,06,12,05,22.90
2017,09,06,12,06,22.90
2017,09,06,12,07,22.90
2017,09,06,12,08,22.80
2017,09,06,12,09,22.70
2017,09,06,12,10,22.70
2017,09,06,12,11,22.70
2017,09,06,12,12,22.60
2017,09,06,12,13,22.60
2017,09,06,12,14,22.50
2017,09,06,12,15,22.50
2017,09,06,12,16,22.40
2017,09,06,12,17,22.40
2017,09,06,12,18,22.40
2017,09,06,12,19,22.40
2017,09,06,12,20,22.40
2017,09,06,12,21,22.40
2017,09,06,12,22,22.50
2017,09,06,12,23,22.40
2017,09,06,12,24,22.40
2017,09,06,12,25,22.30
2017,09,06,12,26,22.30
2017,09,06,12,27,22.30
2017,09,06,12,28,22.30
2017,09,06,12,29,22.40
2017,09,06,12,30,22.40
2017,09,06,12,31,22.40
2017,09,06,12,32,22.40
2017,09,06,12,33,22.50
2017,09,06,12,34,22.60
2017,09,06,12,35,22.60
2017,09,06,12,36,22.60
2017,09,06,12,37,22.60
2017,09,06,12,38,22.70
2017,09,06,12,39,22.70
2017,09,06,12,40,22.70
2017,09,06,12,41,22.80
2017,09,06,12,42,22.80
2017,09,06,12,43,22.80
2017,09,06,12,44,22.80
2017,09,06,12,45,22.90
2017,09,06,12,46,22.90
2017,09,06,12,47,22.90
2017,09,06,12,48,22.90
2017,09,06,12,49,22.90
2017,09,06,12,50,22.90
2017,09,06,12,51,22.90
2017,09,06,12,52,22.90
2017,09,06,12,53,22.90
2017,09,06,12,54,23.00
2017,09,06,12,55,23.00
2017,09,06,12,56,23.00
2017,09,06,12,57,23.10
2017,09,06,12,58,23.10
2017,09,06,12,59,23.20
2017,09,06,13,00,23.30
2017,09,06,13,01,23.30
2017,09,06,13,02,23.40
2017,09,06,13,03,23.40
2017,09,06,13,04,23.40
2017,09,06,13,05,23.40
2017,09,06,13,06,23.30
2017,09,06,13,07,23.30
2017,09,06,13,08,23.30
2017,09,06,13,09,23.30
2017,09,06,13,10,23.30
2017,09,06,13,11,23.30
2017,09,06,13,12,23.20
2017,09,06,13,13,23.10
2017,09,06,13,14,23.10
2017,09,06,13,15,23.00
2017,09,06,13,16,23.00
2017,09,06,13,17,23.00
2017,09,06,13,18,23.00
2017,09,06,13,19,23.10
2017,09,06,13,20,23.10
2017,09,06,13,21,23.10
2017,09,06,13,22,23.10
2017,09,06,13,23,23.10
2017,09,06,13,24,23.00
2017,09,06,13,25,22.90
2017,09,06,13,26,22.80
2017,09,06,13,27,22.80
2017,09,06,13,28,22.70
2017,09,06,13,29,22.60
2017,09,06,13,30,22.60
2017,09,06,13,31,22.60
2017,09,06,13,32,22.60
2017,09,06,13,33,22.60
2017,09,06,13,34,22.60
2017,09,06,13,35,22.70
2017,09,06,13,36,22.70
2017,09,06,13,37,22.70
2017,09,06,13,38,22.70
2017,09,06,13,39,22.70
2017,09,06,13,40,22.70
2017,09,06,13,41,22.70
2017,09,06,13,42,22.70
2017,09,06,13,43,22.80
2017,09,06,13,44,22.70
2017,09,06,13,45,22.70
2017,09,06,13,46,22.70
2017,09,06,13,47,22.70
2017,09,06,13,48,22.70
2017,09,06,13,49,22.70
2017,09,06,13,50,22.80
2017,09,06,13,51,22.80
2017,09,06,13,52,22.90
2017,09,06,13,53,23.00
2017,09,06,13,54,23.10
2017,09,06,13,55,23.10
2017,09,06,13,56,23.20
2017,09,06,13,57,23.10
2017,09,06,13,58,23.10
2017,09,06,13,59,23.10
2017,09,06,14,00,23.00
2017,09,06,14,01,23.00
2017,09,06,14,02,23.00
2017,09,06,14,03,23.00
2017,09,06,14,04,22.90
2017,09,06,14,05,22.90
2017,09,06,14,06,22.80
2017,09,06,14,07,22.80
2017,09,06,14,08,22.80
2017,09,06,14,09,22.80
2017,09,06,14,10,22.80
2017,09,06,14,11,22.80
2017,09,06,14,12,22.80
2017,09,06,14,13,22.80
2017,09,06,14,14,22.70
2017,09,06,14,15,22.70
2017,09,06,14,16,22.70
2017,09,06,14,17,22.70
2017,09,06,14,18,22.70
2017,09,06,14,19,22.70
2017,09,06,14,20,22.80
2017,09,06,14,21,22.80
2017,09,06,14,22,22.80
2017,09,06,14,23,22.80
2017,09,06,14,24,22.80
2017,09,06,14,25,22.70
2017,09,06,14,26,22.70
2017,09,06,14,27,22.60
2017,09,06,14,28,22.60
2017,09,06,14,29,22.60
2017,09,06,14,30,22.50
2017,09,06,14,31,22.50
2017,09,06,14,32,22.60
2017,09,06,14,33,22.60
2017,09,06,14,34,22.60
2017,09,06,14,35,22.60
2017,09,06,14,36,22.70
2017,09,06,14,37,22.60
2017,09,06,14,38,22.60
2017,09,06,14,39,22.60
2017,09,06,14,40,22.60
2017,09,06,14,41,22.60
2017,09,06,14,42,22.60
2017,09,06,14,43,22.60
2017,09,06,14,44,22.60
2017,09,06,14,45,22.60
2017,09,06,14,46,22.50
2017,09,06,14,47,22.60
2017,09,06,14,48,22.60
2017,09,06,14,49,22.60
2017,09,06,14,50,22.60
2017,09,06,14,51,22.60
2017,09,06,14,52,22.60
2017,09,06,14,53,22.70
2017,09,06,14,54,22.70
2017,09,06,14,55,22.80
2017,09,06,14,56,22.90
2017,09,06,14,57,22.90
2017,09,06,14,58,23.00
2017,09,06,14,59,23.10
2017,09,06,15,00,23.10
2017,09,06,15,01,23.10
2017,09,06,15,02,23.00
2017,09,06,15,03,22.90
2017,09,06,15,04,22.90
2017,09,06,15,05,22.90
2017,09,06,15,06,22.90
2017,09,06,15,07,22.90
2017,09,06,15,08,22.90
2017,09,06,15,09,22.90
2017,09,06,15,10,22.90
2017,09,06,15,11,22.90
2017,09,06,15,12,22.80
2017,09,06,15,13,22.80
2017,09,06,15,14,22.70
2017,09,06,15,15,22.70
2017,09,06,15,16,22.60
2017,09,06,15,17,22.60
2017,09,06,15,18,22.60
2017,09,06,15,19,22.60
2017,09,06,15,20,22.60
2017,09,06,15,21,22.60
2017,09,06,15,22,22.70
2017,09,06,15,23,22.70
2017,09,06,15,24,22.70
2017,09,06,15,25,22.70
2017,09,06,15,26,22.70
2017,09,06,15,27,22.70
2017,09,06,15,28,22.70
2017,09,06,15,29,22.70
2017,09,06,15,30,22.70
2017,09,06,15,31,22.70
2017,09,06,15,32,22.70
2017,09,06,15,33,22.70
2017,09,06,15,34,22.70
2017,09,06,15,35,22.70
2017,09,06,15,36,22.70
2017,09,06,15,37,22.60
2017,09,06,15,38,22.60
2017,09,06,15,39,22.50
2017,09,06,15,40,22.50
2017,09,06,15,41,22.40
2017,09,06,15,42,22.40
2017,09,06,15,43,22.40
2017,09,06,15,44,22.40
2017,09,06,15,45,22.40
2017,09,06,15,46,22.40
2017,09,06,15,47,22.40
2017,09,06,15,48,22.30
2017,09,06,15,49,22.30
2017,09,06,15,50,22.30
2017,09,06,15,51,22.30
2017,09,06,15,52,22.30
2017,09,06,15,53,22.30
2017,09,06,15,54,22.30
2017,09,06,15,55,22.30
2017,09,06,15,56,22.30
2017,09,06,15,57,22.30
2017,09,06,15,58,22.30
2017,09,06,15,59,22.30
2017,09,06,16,00,22.30
2017,09,06,16,01,22.30
2017,09,06,16,02,22.40
2017,09,06,16,03,22.40
2017,09,06,16,04,22.40
2017,09,06,16,05,22.50
2017,09,06,16,06,22.50
2017,09,06,16,07,22.60
2017,09,06,16,08,22.60
2017,09,06,16,09,22.60
2017,09,06,16,10,22.60
2017,09,06,16,11,22.60
2017,09,06,16,12,22.60
2017,09,06,16,13,22.50
2017,09,06,16,14,22.50
2017,09,06,16,15,22.50
2017,09,06,16,16,22.40
2017,09,06,16,17,22.40
2017,09,06,16,18,22.40
2017,09,06,16,19,22.40
2017,09,06,16,20,22.30
2017,09,06,16,21,22.30
2017,09,06,16,22,22.20
2017,09,06,16,23,22.20
2017,09,06,16,24,22.10
2017,09,06,16,25,22.10
2017,09,06,16,26,22.10
2017,09,06,16,27,22.10
2017,09,06,16,28,22.10
2017,09,06,16,29,22.10
2017,09,06,16,30,22.10
2017,09,06,16,31,22.10
2017,09,06,16,32,22.10
2017,09,06,16,33,22.10
2017,09,06,16,34,22.10
2017,09,06,16,35,22.10
2017,09,06,16,36,22.10
2017,09,06,16,37,22.10
2017,09,06,16,38,22.10
2017,09,06,16,39,22.10
2017,09,06,16,40,22.20
2017,09,06,16,41,22.10
2017,09,06,16,42,22.10
2017,09,06,16,43,22.10
2017,09,06,16,44,22.10
2017,09,06,16,45,22.10
2017,09,06,16,46,22.10
2017,09,06,16,47,22.10
2017,09,06,16,48,22.10
2017,09,06,16,49,22.10
2017,09,06,16,50,22.20
2017,09,06,16,51,22.20
2017,09,06,16,52,22.20
2017,09,06,16,53,22.20
2017,09,06,16,54,22.20
2017,09,06,16,55,22.20
2017,09,06,16,56,22.20
2017,09,06,16,57,22.20
2017,09,06,16,58,22.20
2017,09,06,16,59,22.10
2017,09,06,17,00,22.10
2017,09,06,17,01,22.10
2017,09,06,17,02,22.10
2017,09,06,17,03,22.10
2017,09,06,17,04,22.10
2017,09,06,17,05,22.10
2017,09,06,17,06,22.10
2017,09,06,17,07,22.10
2017,09,06,17,08,22.10
2017,09,06,17,09,22.20
2017,09,06,17,10,22.10
2017,09,06,17,11,22.10
2017,09,06,17,12,22.10
2017,09,06,17,13,22.10
2017,09,06,17,14,22.10
2017,09,06,17,15,22.10
2017,09,06,17,16,22.10
2017,09,06,17,17,22.10
2017,09,06,17,18,22.10
2017,09,06,17,19,22.10